EW7175 Weather Reports


Display with metric or nautical units.
time (UTC)temp
F
wind
direction
speed
MPH
gust
MPH
rain 1hr
in
rain 24hr
in
rain mn
in
humidity
%
barometer
mb
20260901123009 79 175 0.0 0.0 0.00 0.00 0.00 91 1013.6
20260901121506 79 175 0.0 0.0 0.00 0.00 0.00 91 1013.4
20260901120001 79 184 0.0 0.0 0.00 0.00 0.00 91 1013.4
20260901114501 79 184 0.0 0.0 0.00 0.00 0.00 91 1013.3
20260901113058 79 184 0.0 0.0 0.00 0.00 0.00 91 1013.2
20260901111554 79 184 0.0 0.0 0.00 0.00 0.00 91 1013.3
20260901110051 79 184 0.0 0.0 0.00 0.00 0.00 91 1013.2
20260901104550 79 184 0.0 0.0 0.00 0.00 0.00 91 1013.2
20260901103056 79 184 0.0 0.0 0.00 0.00 0.00 91 1013.0
20260901101553 79 184 0.0 0.0 0.00 0.00 0.00 91 1012.9
20260901100047 79 184 0.0 0.0 0.00 0.00 0.00 90 1013.0
20260901094546 79 184 0.0 0.0 0.00 0.00 0.00 90 1013.0
20260901093111 80 184 0.0 0.0 0.00 0.00 0.00 89 1013.1
20260901091559 80 184 0.0 0.0 0.00 0.00 0.00 89 1013.0
20260901090043 80 184 0.0 0.0 0.00 0.00 0.00 88 1013.1
20260901084542 80 184 0.0 0.0 0.00 0.00 0.00 88 1013.0
20260901083046 80 184 0.0 0.0 0.00 0.00 0.00 88 1013.3
20260901081541 80 184 0.0 0.0 0.00 0.00 0.00 87 1013.3
20260901080044 80 184 0.0 0.0 0.00 0.00 0.00 87 1013.3
20260901074537 80 184 0.0 0.0 0.00 0.00 0.00 86 1013.4
20260901073036 80 184 0.0 0.0 0.00 0.00 0.00 86 1013.4
20260901071535 81 184 0.0 0.0 0.00 0.00 0.00 85 1013.4
20260901070036 81 184 0.0 0.0 0.00 0.00 0.00 85 1013.4
20260901064537 81 184 0.0 0.0 0.00 0.00 0.00 84 1013.3
20260901063035 82 184 0.0 0.0 0.00 0.00 0.00 83 1013.5
20260901061530 82 184 0.0 0.0 0.00 0.00 0.00 83 1013.5
20260901060028 82 184 0.0 0.0 0.00 0.00 0.00 82 1013.7
20260901054527 82 184 0.0 0.0 0.00 0.00 0.00 81 1013.5
20260901053026 82 184 0.0 0.0 0.00 0.00 0.00 80 1013.4
20260901051524 83 184 0.0 0.0 0.00 0.00 0.00 81 1013.4
20260901050022 83 184 0.0 0.0 0.00 0.00 0.00 81 1013.4
20260901044522 83 184 0.0 0.0 0.00 0.00 0.00 80 1013.2
20260901043022 83 184 0.0 0.0 0.00 0.00 0.00 79 1013.1
20260901041521 83 184 0.0 0.0 0.00 0.00 0.00 79 1013.2
20260901040021 83 184 0.0 0.0 0.00 0.00 0.00 80 1013.1
20260901034519 83 184 0.0 0.0 0.00 0.00 0.00 79 1012.9
20260901033036 84 184 0.0 0.0 0.00 0.00 0.00 79 1012.8
20260901031520 84 184 0.0 0.0 0.00 0.00 0.00 78 1012.6
20260901030022 84 184 0.0 0.0 0.00 0.00 0.00 75 1012.4
20260901024520 85 184 0.0 0.0 0.00 0.00 0.00 75 1012.3
20260901023018 85 184 0.0 0.0 0.00 0.00 0.00 73 1012.1
20260901021520 86 184 0.0 0.0 0.00 0.00 0.00 72 1011.9
20260901020017 86 184 0.0 0.0 0.00 0.00 0.00 72 1011.8
20260901014516 87 184 0.0 0.0 0.00 0.00 0.00 71 1011.7
20260901013017 87 184 0.0 0.0 0.00 0.00 0.00 70 1011.6
20260901011515 88 184 0.0 0.0 0.00 0.00 0.00 68 1011.6
20260901010015 88 184 0.0 0.0 0.00 0.00 0.00 67 1011.5
20260901004514 89 184 0.0 0.0 0.00 0.00 0.00 66 1011.5
20260901003014 90 184 0.0 0.0 0.00 0.00 0.00 66 1011.6
20260901001517 90 184 0.0 0.0 0.00 0.00 0.00 64 1011.7
20260901000013 91 184 0.0 0.0 0.00 0.00 0.00 62 1011.7
20260831234526 91 184 0.0 0.0 0.00 0.00 0.00 62 1011.7
20260831233012 92 184 0.0 0.0 0.00 0.00 0.00 60 1011.8
20260831231511 92 190 0.0 0.0 0.00 0.00 0.00 58 1011.8
20260831230010 92 191 0.0 0.0 0.00 0.00 0.00 58 1011.7
20260831224510 92 192 0.0 0.0 0.00 0.00 0.00 57 1011.8
20260831223010 92 44 0.0 0.0 0.00 0.00 0.00 59 1011.8
20260831221520 92 189 0.0 0.0 0.00 0.00 0.00 59 1011.8
20260831220019 92 180 0.0 0.0 0.00 0.00 0.00 59 1011.9
20260831214507 92 117 0.0 0.0 0.00 0.00 0.00 58 1012.0
20260831213018 93 181 0.0 0.0 0.00 0.00 0.00 61 1012.1
20260831211506 94 122 0.0 0.0 0.00 0.00 0.00 59 1012.1
20260831210003 94 146 0.0 0.0 0.00 0.00 0.00 59 1012.2
20260831204502 95 146 0.0 0.0 0.00 0.00 0.00 58 1012.3
20260831203133 96 160 0.0 0.0 0.00 0.00 0.00 53 1012.5
20260831201558 97 158 0.0 0.0 0.00 0.00 0.00 49 1012.7
20260831200058 97 186 0.0 0.0 0.00 0.00 0.00 49 1012.9
20260831194555 96 190 0.0 0.0 0.00 0.00 0.00 51 1013.0
20260831193056 96 261 0.0 0.0 0.00 0.00 0.00 50 1013.2
20260831191551 97 341 0.0 0.0 0.00 0.00 0.00 49 1013.4
20260831190111 97 173 0.0 0.0 0.00 0.00 0.00 51 1013.6
20260831184550 96 136 0.0 0.0 0.00 0.00 0.00 51 1013.7
20260831183048 96 41 0.0 0.0 0.00 0.00 0.00 52 1014.0
20260831181555 96 49 0.0 0.0 0.00 0.00 0.00 53 1014.1
20260831180046 96 10 0.0 0.0 0.00 0.00 0.00 55 1014.4
20260831174550 95 261 0.0 0.0 0.00 0.00 0.00 56 1014.5
20260831173043 95 31 0.0 0.0 0.00 0.00 0.00 56 1014.7
20260831171541 94 17 0.0 0.0 0.00 0.00 0.00 58 1014.8
20260831170040 93 296 0.0 0.0 0.00 0.00 0.00 60 1014.9
20260831164536 93 351 0.0 0.0 0.00 0.00 0.00 60 1015.1
20260831163034 92 61 0.0 0.0 0.00 0.00 0.00 64 1015.1
20260831161531 91 25 0.0 0.0 0.00 0.00 0.00 65 1015.1
20260831160040 90 176 0.0 0.0 0.00 0.00 0.00 67 1015.2
20260831154523 90 177 0.0 0.0 0.00 0.00 0.00 64 1015.2
20260831153044 89 315 0.0 0.0 0.00 0.00 0.00 71 1015.0
20260831151518 87 315 0.0 0.0 0.00 0.00 0.00 73 1015.0
20260831150014 86 30 0.0 0.0 0.00 0.00 0.00 73 1015.0
20260831144510 84 10 0.0 0.0 0.00 0.00 0.00 80 1014.9
20260831143007 84 19 0.0 0.0 0.00 0.00 0.00 83 1014.8
20260831141513 83 23 0.0 0.0 0.00 0.00 0.00 86 1014.8
20260831140004 82 22 0.0 0.0 0.00 0.00 0.00 88 1014.6
20260831134502 81 26 0.0 0.0 0.00 0.00 0.00 89 1014.5
20260831133101 80 26 0.0 0.0 0.00 0.00 0.00 91 1014.5
20260831131603 79 194 0.0 0.0 0.00 0.00 0.00 94 1014.4
20260831130112 78 193 0.0 0.0 0.00 0.00 0.00 95 1014.3
20260831124600 77 193 0.0 0.0 0.00 0.00 0.00 95 1014.2